JLY1182 SBRB-SBBR

Flight info

Callsign JLY1182
Flight time N/A
Altitude 37000
Route ESMAL DCT BUVKI UZ98 ELISA
Aircraft B738/M-SDE2E3FGHIRWXY/LB1

Departure

Time 2026-04-20 15:06
Airport Rio Branco-Plácido de Castro International Airport (SBRB)

Arrival

Time N/A
Airport Presidente Juscelino Kubitschek International Airport (SBBR)
Time Latitude Longitude Altitude Speed Heading
2026-04-20 14:52 -9.86757 -67.89746 635 ft 0 kts 326°
2026-04-20 15:01 -9.86768 -67.89739 630 ft 4 kts 325°
2026-04-20 15:01 -9.86785 -67.89721 630 ft 4 kts 280°
2026-04-20 15:02 -9.86782 -67.89697 634 ft 3 kts 238°
2026-04-20 15:02 -9.86777 -67.89690 632 ft 0 kts 237°
2026-04-20 15:03 -9.86778 -67.89690 632 ft 1 kts 237°
2026-04-20 15:03 -9.86814 -67.89731 610 ft 13 kts 218°
2026-04-20 15:04 -9.86917 -67.89789 635 ft 20 kts 201°
2026-04-20 15:04 -9.87061 -67.89824 629 ft 20 kts 193°
2026-04-20 15:04 -9.87211 -67.89902 630 ft 29 kts 227°
2026-04-20 15:04 -9.87321 -67.90048 636 ft 26 kts 237°
2026-04-20 15:05 -9.87424 -67.90159 639 ft 9 kts 224°
2026-04-20 15:05 -9.87399 -67.90190 636 ft 9 kts 30°
2026-04-20 15:05 -9.87324 -67.90051 636 ft 54 kts 56°
2026-04-20 15:05 -9.86980 -67.89512 643 ft 125 kts 57°
2026-04-20 15:06 -9.86393 -67.88590 634 ft 183 kts 56°
2026-04-20 15:06 -9.85706 -67.87393 1088 ft 207 kts 64°
2026-04-20 15:06 -9.85315 -67.85906 1544 ft 228 kts 86°
2026-04-20 15:06 -9.85681 -67.84367 2612 ft 229 kts 117°
2026-04-20 15:07 -9.86758 -67.83096 3316 ft 249 kts 144°
2026-04-20 15:07 -9.88228 -67.82040 3896 ft 272 kts 145°
2026-04-20 15:07 -9.89804 -67.80898 4742 ft 281 kts 144°
2026-04-20 15:07 -9.91126 -67.79443 5548 ft 285 kts 117°
2026-04-20 15:08 -9.91814 -67.77557 6371 ft 287 kts 105°
2026-04-20 15:08 -9.92346 -67.75591 7118 ft 291 kts 104°
2026-04-20 15:08 -9.92856 -67.73597 7900 ft 293 kts 103°
2026-04-20 15:08 -9.93367 -67.71584 8707 ft 296 kts 103°
2026-04-20 15:09 -9.93886 -67.69555 9464 ft 299 kts 103°
2026-04-20 15:09 -9.94414 -67.67507 10211 ft 302 kts 103°
2026-04-20 15:09 -9.94966 -67.65381 10492 ft 323 kts 103°
2026-04-20 15:09 -9.95561 -67.63099 10668 ft 346 kts 104°
2026-04-20 15:10 -9.96191 -67.60693 11019 ft 360 kts 104°
2026-04-20 15:10 -9.96843 -67.58221 11572 ft 365 kts 104°
2026-04-20 15:10 -9.97502 -67.55722 12242 ft 367 kts 104°
2026-04-20 15:10 -9.98165 -67.53212 12916 ft 369 kts 104°
2026-04-20 15:11 -9.98832 -67.50691 13604 ft 371 kts 104°
2026-04-20 15:11 -9.99501 -67.48157 14195 ft 374 kts 104°
2026-04-20 15:11 -10.00178 -67.45588 14767 ft 378 kts 104°
2026-04-20 15:11 -10.00851 -67.43039 15305 ft 381 kts 104°
2026-04-20 15:12 -10.01548 -67.40394 15873 ft 384 kts 104°
2026-04-20 15:12 -10.02231 -67.37802 16407 ft 387 kts 104°
2026-04-20 15:12 -10.02929 -67.35153 16954 ft 390 kts 104°
2026-04-20 15:12 -10.03632 -67.32485 17492 ft 393 kts 104°
2026-04-20 15:13 -10.04342 -67.29789 18006 ft 397 kts 104°
2026-04-20 15:13 -10.05058 -67.27067 18486 ft 400 kts 104°
2026-04-20 15:13 -10.05779 -67.24328 18941 ft 402 kts 104°
2026-04-20 15:13 -10.06501 -67.21582 19402 ft 404 kts 104°
2026-04-20 15:14 -10.07228 -67.18820 19885 ft 405 kts 104°
2026-04-20 15:14 -10.07957 -67.16045 20335 ft 408 kts 104°
2026-04-20 15:14 -10.08688 -67.13262 20757 ft 410 kts 104°
2026-04-20 15:14 -10.09424 -67.10458 21187 ft 412 kts 104°
2026-04-20 15:15 -10.10165 -67.07637 21563 ft 415 kts 104°
2026-04-20 15:15 -10.10910 -67.04797 21947 ft 418 kts 104°
2026-04-20 15:15 -10.11660 -67.01939 22390 ft 420 kts 104°
2026-04-20 15:15 -10.12415 -66.99060 22838 ft 423 kts 104°
2026-04-20 15:16 -10.13175 -66.96161 23271 ft 427 kts 104°
2026-04-20 15:16 -10.13929 -66.93285 23693 ft 428 kts 104°
2026-04-20 15:16 -10.14708 -66.90325 24022 ft 429 kts 104°
2026-04-20 15:16 -10.15514 -66.87439 24303 ft 432 kts 105°
2026-04-20 15:17 -10.16367 -66.84505 24603 ft 434 kts 105°
2026-04-20 15:17 -10.17232 -66.81570 24913 ft 435 kts 106°
2026-04-20 15:17 -10.18102 -66.78620 25182 ft 437 kts 106°
2026-04-20 15:17 -10.18973 -66.75653 25469 ft 439 kts 105°
2026-04-20 15:18 -10.19843 -66.72676 25761 ft 441 kts 105°
2026-04-20 15:18 -10.20712 -66.69686 26039 ft 443 kts 105°
2026-04-20 15:18 -10.21584 -66.66682 26306 ft 445 kts 105°
2026-04-20 15:18 -10.22456 -66.63669 26590 ft 446 kts 105°
2026-04-20 15:19 -10.23334 -66.60636 26864 ft 448 kts 105°
2026-04-20 15:19 -10.24212 -66.57598 27123 ft 450 kts 105°
2026-04-20 15:19 -10.25095 -66.54544 27387 ft 452 kts 105°
2026-04-20 15:19 -10.25983 -66.51473 27649 ft 454 kts 105°
2026-04-20 15:20 -10.26873 -66.48390 27910 ft 456 kts 105°
2026-04-20 15:20 -10.27767 -66.45294 28162 ft 457 kts 105°
2026-04-20 15:20 -10.28662 -66.42194 28397 ft 459 kts 105°
2026-04-20 15:20 -10.29562 -66.39077 28624 ft 461 kts 105°
2026-04-20 15:21 -10.30452 -66.35991 28844 ft 462 kts 105°
2026-04-20 15:21 -10.31357 -66.32855 29073 ft 464 kts 105°
2026-04-20 15:21 -10.32265 -66.29706 29295 ft 465 kts 105°
2026-04-20 15:21 -10.33174 -66.26549 29508 ft 467 kts 105°
2026-04-20 15:22 -10.34087 -66.23380 29717 ft 468 kts 105°
2026-04-20 15:22 -10.35002 -66.20202 29937 ft 470 kts 105°
2026-04-20 15:22 -10.35921 -66.17009 30139 ft 471 kts 105°
2026-04-20 15:22 -10.36839 -66.13820 30360 ft 471 kts 105°
2026-04-20 15:23 -10.37755 -66.10632 30600 ft 470 kts 105°
2026-04-20 15:23 -10.38674 -66.07436 30856 ft 470 kts 105°
2026-04-20 15:23 -10.39588 -66.04257 31156 ft 468 kts 105°
2026-04-20 15:23 -10.40498 -66.01088 31408 ft 468 kts 105°
2026-04-20 15:24 -10.41410 -65.97912 31667 ft 467 kts 105°
2026-04-20 15:24 -10.42318 -65.94748 31984 ft 466 kts 105°
2026-04-20 15:24 -10.43224 -65.91590 32231 ft 466 kts 105°
2026-04-20 15:24 -10.43824 -65.89499 32394 ft 466 kts 105°
2026-04-20 15:25 -10.44728 -65.86345 32712 ft 464 kts 105°
2026-04-20 15:25 -10.45627 -65.83208 33030 ft 462 kts 105°
2026-04-20 15:25 -10.46525 -65.80073 33276 ft 462 kts 105°
2026-04-20 15:25 -10.47422 -65.76939 33595 ft 461 kts 105°
2026-04-20 15:26 -10.48607 -65.72801 33968 ft 460 kts 106°
2026-04-20 15:26 -10.49501 -65.69675 34149 ft 461 kts 105°
2026-04-20 15:26 -10.50104 -65.67566 34338 ft 459 kts 105°
2026-04-20 15:26 -10.50993 -65.64457 34666 ft 456 kts 106°
2026-04-20 15:27 -10.51878 -65.61358 34901 ft 456 kts 106°
2026-04-20 15:27 -10.52760 -65.58270 35195 ft 454 kts 106°
2026-04-20 15:27 -10.53637 -65.55198 35473 ft 452 kts 106°
2026-04-20 15:27 -10.54514 -65.52125 35629 ft 453 kts 106°
2026-04-20 15:28 -10.55392 -65.49050 35860 ft 453 kts 106°
2026-04-20 15:28 -10.56266 -65.45985 36140 ft 450 kts 106°
2026-04-20 15:28 -10.57137 -65.42930 36343 ft 451 kts 106°
2026-04-20 15:28 -10.57997 -65.39865 36541 ft 450 kts 105°
2026-04-20 15:29 -10.58764 -65.36792 36800 ft 448 kts 103°
2026-04-20 15:29 -10.59475 -65.33707 36989 ft 448 kts 103°
2026-04-20 15:29 -10.60172 -65.30602 36979 ft 451 kts 103°
2026-04-20 15:30 -10.61562 -65.24424 36983 ft 449 kts 103°
2026-04-20 15:30 -10.62980 -65.18244 36988 ft 446 kts 103°
2026-04-20 15:31 -10.64394 -65.12156 36993 ft 443 kts 103°
2026-04-20 15:31 -10.65810 -65.06072 36990 ft 442 kts 103°
2026-04-20 15:32 -10.67225 -64.99985 36990 ft 442 kts 103°
2026-04-20 15:32 -10.68639 -64.93892 36999 ft 443 kts 103°
2026-04-20 15:33 -10.70054 -64.87788 36995 ft 445 kts 103°
2026-04-20 15:33 -10.71477 -64.81648 36988 ft 446 kts 103°
2026-04-20 15:34 -10.72904 -64.75482 36988 ft 447 kts 103°
2026-04-20 15:34 -10.74327 -64.69326 36987 ft 448 kts 103°
2026-04-20 15:35 -10.75746 -64.63184 36988 ft 449 kts 103°
2026-04-20 15:35 -10.77173 -64.57000 36998 ft 450 kts 103°
2026-04-20 15:36 -10.78606 -64.50781 36981 ft 450 kts 103°
2026-04-20 15:36 -10.80034 -64.44585 36986 ft 449 kts 103°
2026-04-20 15:37 -10.81448 -64.38439 36987 ft 447 kts 103°
2026-04-20 15:37 -10.82869 -64.32258 37004 ft 446 kts 103°
2026-04-20 15:38 -10.84277 -64.26128 36985 ft 446 kts 103°
2026-04-20 15:38 -10.85683 -64.20000 36984 ft 444 kts 103°
2026-04-20 15:39 -10.87080 -64.13906 36983 ft 443 kts 103°
2026-04-20 15:39 -10.88478 -64.07799 36989 ft 442 kts 103°
2026-04-20 15:40 -10.89867 -64.01730 36997 ft 442 kts 103°
2026-04-20 15:40 -10.91261 -63.95632 37003 ft 443 kts 103°
2026-04-20 15:41 -10.92667 -63.89476 36986 ft 444 kts 103°
2026-04-20 15:41 -10.94059 -63.83371 36992 ft 446 kts 103°
2026-04-20 15:42 -10.95465 -63.77204 36992 ft 446 kts 103°
2026-04-20 15:42 -10.96855 -63.71097 36988 ft 446 kts 103°
2026-04-20 15:43 -10.98260 -63.64920 36994 ft 446 kts 103°
2026-04-20 15:43 -10.99654 -63.58788 36988 ft 446 kts 102°
2026-04-20 15:44 -11.01054 -63.52619 36994 ft 446 kts 102°
2026-04-20 15:44 -11.02446 -63.46486 36985 ft 446 kts 102°
2026-04-20 15:45 -11.03844 -63.40315 36982 ft 446 kts 103°
2026-04-20 15:45 -11.05232 -63.34182 36988 ft 446 kts 103°
2026-04-20 15:46 -11.06621 -63.28040 36987 ft 446 kts 103°
2026-04-20 15:46 -11.08014 -63.21871 36984 ft 446 kts 103°
2026-04-20 15:47 -11.09405 -63.15710 36990 ft 446 kts 103°
2026-04-20 15:47 -11.10785 -63.09587 36981 ft 446 kts 103°
2026-04-20 15:48 -11.12171 -63.03430 36983 ft 447 kts 103°
2026-04-20 15:48 -11.13565 -62.97241 36984 ft 448 kts 103°
2026-04-20 15:49 -11.14960 -62.91052 36981 ft 448 kts 103°
2026-04-20 15:49 -11.16348 -62.84887 36984 ft 448 kts 103°
2026-04-20 15:50 -11.17742 -62.78690 36987 ft 448 kts 103°
2026-04-20 15:50 -11.19130 -62.72512 36985 ft 448 kts 103°
2026-04-20 15:51 -11.20511 -62.66357 36983 ft 447 kts 103°
2026-04-20 15:51 -11.21899 -62.60168 36986 ft 447 kts 103°
2026-04-20 15:52 -11.23278 -62.54009 36985 ft 447 kts 103°
2026-04-20 15:52 -11.24657 -62.47843 36982 ft 446 kts 103°
2026-04-20 15:53 -11.26716 -62.38630 36983 ft 446 kts 103°
2026-04-20 15:53 -11.28085 -62.32492 36986 ft 445 kts 103°
2026-04-20 15:54 -11.29464 -62.26310 36981 ft 445 kts 103°
2026-04-20 15:54 -11.30830 -62.20159 36985 ft 445 kts 102°
2026-04-20 15:55 -11.32182 -62.14015 36984 ft 445 kts 102°
2026-04-20 15:55 -11.33528 -62.07889 36977 ft 445 kts 102°
2026-04-20 15:56 -11.34885 -62.01716 36983 ft 445 kts 102°
2026-04-20 15:56 -11.36235 -61.95583 36982 ft 445 kts 102°
2026-04-20 15:57 -11.37588 -61.89433 36987 ft 446 kts 102°
2026-04-20 15:57 -11.38943 -61.83267 36984 ft 447 kts 102°
2026-04-20 15:58 -11.40306 -61.77052 36984 ft 447 kts 102°
2026-04-20 15:58 -11.41652 -61.70912 36984 ft 447 kts 102°
2026-04-20 15:59 -11.43011 -61.64705 36985 ft 447 kts 102°
2026-04-20 15:59 -11.44365 -61.58516 36983 ft 447 kts 102°
2026-04-20 16:00 -11.45714 -61.52339 36989 ft 447 kts 102°
2026-04-20 16:00 -11.47073 -61.46156 36988 ft 447 kts 102°
2026-04-20 16:01 -11.48425 -61.40018 36985 ft 447 kts 102°
2026-04-20 16:01 -11.49783 -61.33837 36989 ft 446 kts 102°
2026-04-20 16:02 -11.51130 -61.27660 36985 ft 446 kts 102°
2026-04-20 16:02 -11.52368 -61.21460 36985 ft 446 kts 101°
2026-04-20 16:03 -11.53568 -61.15262 36984 ft 445 kts 101°
2026-04-20 16:03 -11.54775 -61.09073 36981 ft 445 kts 101°
2026-04-20 16:04 -11.55988 -61.02895 36981 ft 444 kts 101°
2026-04-20 16:04 -11.57204 -60.96710 36986 ft 445 kts 101°
2026-04-20 16:05 -11.58419 -60.90523 36988 ft 446 kts 101°
2026-04-20 16:05 -11.59637 -60.84315 36988 ft 446 kts 101°
2026-04-20 16:06 -11.60855 -60.78097 36983 ft 447 kts 101°
2026-04-20 16:06 -11.62073 -60.71872 36983 ft 448 kts 101°
2026-04-20 16:07 -11.63290 -60.65642 36989 ft 448 kts 101°
2026-04-20 16:07 -11.64503 -60.59428 36988 ft 449 kts 101°
2026-04-20 16:08 -11.65721 -60.53176 36987 ft 450 kts 101°
2026-04-20 16:08 -11.66942 -60.46909 36988 ft 450 kts 101°
2026-04-20 16:09 -11.68160 -60.40643 36983 ft 450 kts 101°
2026-04-20 16:09 -11.69379 -60.34371 36988 ft 450 kts 101°
2026-04-20 16:10 -11.70595 -60.28103 36985 ft 450 kts 101°
2026-04-20 16:10 -11.71800 -60.21882 36984 ft 450 kts 101°
2026-04-20 16:11 -11.73012 -60.15622 36985 ft 450 kts 101°
2026-04-20 16:11 -11.74222 -60.09363 36988 ft 449 kts 101°
2026-04-20 16:12 -11.75429 -60.03110 36978 ft 449 kts 101°
2026-04-20 16:12 -11.76635 -59.96857 36986 ft 449 kts 101°
2026-04-20 16:13 -11.77644 -59.91617 36987 ft 449 kts 101°
2026-04-20 16:13 -11.78843 -59.85399 36991 ft 450 kts 101°
2026-04-20 16:14 -11.80051 -59.79127 36988 ft 450 kts 101°
2026-04-20 16:14 -11.81255 -59.72861 36989 ft 450 kts 101°
2026-04-20 16:15 -11.82459 -59.66590 36990 ft 450 kts 101°
2026-04-20 16:15 -11.83662 -59.60316 36990 ft 450 kts 101°
2026-04-20 16:16 -11.84864 -59.54038 36980 ft 451 kts 101°
2026-04-20 16:16 -11.86065 -59.47762 36990 ft 450 kts 101°
2026-04-20 16:17 -11.87264 -59.41487 36982 ft 450 kts 101°
2026-04-20 16:17 -11.88459 -59.35220 36987 ft 449 kts 101°
2026-04-20 16:18 -11.89645 -59.28996 36983 ft 449 kts 100°
2026-04-20 16:18 -11.90836 -59.22739 36984 ft 449 kts 100°
2026-04-20 16:19 -11.92027 -59.16473 36984 ft 449 kts 100°
2026-04-20 16:19 -11.93234 -59.10214 36985 ft 449 kts 101°
2026-04-20 16:20 -11.94572 -59.03973 36983 ft 450 kts 102°
2026-04-20 16:20 -11.95943 -58.97718 36980 ft 450 kts 102°
2026-04-20 16:21 -11.97296 -58.91476 36985 ft 451 kts 102°
2026-04-20 16:21 -11.98638 -58.85226 36980 ft 451 kts 102°
2026-04-20 16:22 -11.99971 -58.78995 36974 ft 452 kts 102°
2026-04-20 16:22 -12.01321 -58.72716 36972 ft 452 kts 102°
2026-04-20 16:23 -12.02688 -58.66462 37006 ft 452 kts 102°
2026-04-20 16:23 -12.04091 -58.60199 37023 ft 452 kts 102°
2026-04-20 16:24 -12.05533 -58.53946 37014 ft 452 kts 103°
2026-04-20 16:24 -12.07019 -58.47700 37038 ft 452 kts 103°
2026-04-20 16:25 -12.08549 -58.41477 37106 ft 451 kts 103°
2026-04-20 16:25 -12.10123 -58.35284 37129 ft 451 kts 104°